Terminal Aerodrome Forecast
Issued by NWS Melbourne, FL

Home | Current Version | Previous Version | Text Only | Print | Product List | Glossary On
Versions: 1 2 3 4 5 6 7 8 9 10 11 12 13 14 15 16 17 18 19 20 21 22 23 24 25
000
FTUS42 KMLB 191100
TAFMCO
TAF
KMCO 191138Z 1912/2012 04003KT P6SM FEW025 SCT150 BKN200
     FM191400 05007KT P6SM SCT050 BKN150
     FM191900 06008KT 6SM -SHRA SCT030 BKN060 OVC100
     FM200000 04004KT P6SM VCSH BKN040 OVC060=

USA.gov is the U.S. government's official web portal to all federal, state and local government web resources and services.